THORAD AGENA D DEB, 42495

Orbit data source: Space-Track

THORAD AGENA D DEB, 42495 is space debris in SSO originally from a launch on Wed, 08 Apr 1970 UTC launched from the Air Force Western Test Range (AFWTR). Debris objects in space refer to the collection of defunct objects orbiting the Earth. Examples of debris include non-operational satellites, rocket bodies, and fragments generated from explosions, collisions, or faulty payload assembly.

Loading next visibility...
Identifier
42495, 1970-025QZ
Orbit
SSO
Country
Flag of USUS
Related business
Manufacturer
Unknown
Mission
Spacecraft
Bus & Motor
Unknown
Mass
Unknown
Launch date (UTC)
1970-04-08 (56 years ago)
Launch vehicle
Unknown
Launch site
Air Force Western Test Range (AFWTR)
Object type
Payload
Rocket body
Debris
Shape & HBR
Unknown shape, 0.1 m
Radar Cross Section
Small (<0.1 m²)

Expand to show TLE details & history
Last TLE update: 3 days ago

TLE from 3 days ago
0 THORAD AGENA D DEB
1 42495U 70025QZ  25293.88383741  .00000295  00000-0  48354-3 0  9994
2 42495  99.9953 355.2773 0027369   9.2719 350.8918 13.56437350589369
Epoch: 2025-10-20T21:12Z
TLE epoch observation values (Epoch: 2025-10-20T21:12:43.552Z)
Latitude
0.00001°
Longitude
7.51608°
Altitude
1,031.38 km
Speed
7.346 km/s
True Right ascension
23h 41m 06s
True Declination
0° 00' 00"
Sunlit
Object was in full shadow at epoch
Visualization orbit readout
Latitude
Unknown
Longitude
Unknown
Altitude
Unknown
Speed
Unknown
Apparent Right ascension
Unknown
Apparent Declination
Unknown
Sunlit
N/A
Visualization observer readout
Local Sidereal Time
07:51:36
Azimuth
Unknown
Elevation
Unknown
Doppler factor
Unknown
Orbital elements
Apogee altitude
1,066.295 km
Perigee altitude
1,025.657 km
Semi-major axis
7,424.113 km
Eccentricity
0.00274
Inclination
99.9953°
RAAN
355.2773°
Arg. of periapsis
9.2719°
True anomaly
350.84199°
Mean anomaly
350.8918°
Eccentric anomaly
350.86691°
Mean motion
3.39294 °/min
Orbital period
106.1 mins
BSTAR
0.00048354
Loading maneuver chart data...
Computing Atmospheric mass density...

Documentation

Showing up to 5 results
|